Погода в Новоукраинке

Украина / Одесская область     46°48′54″N   30°17′12″E
темп.,
°C
ветер,
м/с
пор.,
м/с
влажн.,
%
обл.,
%
осадки,
мм/ч
давл.,
гПа
погр.,
м
2 марта, вт
вт223:00+2с4777100 0.1 1033565
02:00+1с3677100 0.1 1033345
05:000ссз348480 0.0 1032134
08:00+1зсз127663 0.0 1032130
11:00+6зсз456138 0.0 1030949
14:00+8з685727 0.0 1028908
17:00+8з6105986 0.0 1025829
20:00+6зсз5137152 0.0 1025397
3 марта, ср
ср323:00+5сз5147618 0.0 1025514
02:00+4с6118126 0.0 1027788
05:00+4с5972100 0.0 1027836
08:00+4сз596983 0.0 1029780
11:00+7ссз57580 0.0 10301002
14:00+9ссз45430 0.0 10291264
17:00+8сз344859 0.0 1028887
20:00+5зсз125880 0.0 102822
4 марта, чт
чт423:00+4зюз126229 0.0 102722
02:00+3ююз346515 0.0 102643
05:00+2ююз34760 0.0 102372
08:00+4ююз410820 0.0 1022306
11:00+10юз710590 0.0 1019687
14:00+13юз710500 0.0 1017977
17:00+12юз485450 0.0 1014306
20:00+8ююз346825 0.0 101448
5 марта, пт
пт523:00+6ююз34780 0.0 101452
02:00+5ююз228317 0.0 101323
05:00+5ююв237991 0.0 101225
08:00+6ю348096 0.0 1012111
11:00+11юз4551100 0.0 1011423
14:00+15зсз343780 0.0 1010950
17:00+13с35460 0.0 1010153
20:00+9св5106923 0.0 1011256
6 марта, сб
сб623:00+6ссв478685 0.0 1013259
02:00+6с478792 0.0 1014450
05:00+3с71091100 0.4 1016452
08:00+2ссв81266100 0.7 1019795
11:00+3с81046100 0.0 10211272
14:00+3с7945100 0.0 10221499
17:00+3с7937100 0.0 10241705
20:000ссз364950 0.0 1026134